Weather in Tyamsha

Russia / Pskov Oblast     57°44′36″N   28°08′59″E
temp.,
°C
wind,
m/s
gust,
m/s
humid.,
%
clouds,
%
prec.,
mm/h
press.,
hPa
HPBL,
m
6 may, thu
thu600:00+6s3694100 0.1 999104
03:00+6s2497100 0.2 997112
06:00+6wnw1199100 4.0 99537
09:00+6w1294100 9.0 994190
12:00+8sw3685100 0.8 994573
15:00+10sw6975100 2.3 9941207
18:00+6sw71385100 0.7 9961288
21:00+5sw61287100 0.9 9981241
7 may, fri
fri700:00+5sw61292100 0.3 9991027
03:00+4sw71386100 0.3 1000980
06:00+4sw61289100 0.1 10011031
09:00+7sw6107396 0.1 10021190
12:00+9sw6862100 0.1 10031610
15:00+10sw585989 0.4 10041636
18:00+10sw4754100 0.1 10041320
21:00+6ne1172100 0.1 100411
8 may, sat
sat800:00+6ene2375100 0.0 100375
03:00+5n1193100 0.6 100224
06:00+4nnw3796100 1.6 1001474
09:00+4nw5796100 2.9 1002725
12:00+4nw51096100 2.4 1003758
15:00+4wnw5996100 3.6 1005683
18:00+5wnw4994100 0.4 1007868
21:00+4wnw4118778 0.6 1008443
9 may, sun
sun900:00+3wnw514835 0.0 1010505
03:00+2w514860 0.0 1013424
06:00+1w411910 0.0 1016337
09:00+7w47660 0.0 1018585
12:00+11sw563899 0.0 10181612
15:00+13sw5844100 0.0 10192200
18:00+11sw4860100 0.4 1019939
21:00+7ssw347881 0.6 102062
10 may, mon
mon1000:00+6s398293 0.0 1020202
03:00+7s61583100 0.4 1020679
06:00+8ssw51284100 0.4 1020510
09:00+11ssw5107454 0.4 1021526
12:00+17ssw68565 0.0 10211042
15:00+20ssw6951100 0.0 10211437
18:00+19ssw6959100 0.0 10211029
21:00+15s51274100 0.0 1022453